Weather History for KSPB - November, 2013

Change the Weather History Date:

Monday, November 11, 2013

  Actual Average Record
Temperature  
Mean Temperature 48 °F -  
Max Temperature 61 °F - 61 °F (2013)
Min Temperature 35 °F - 24 °F (2014)
Degree Days  
Heating Degree Days 17    
Month to date heating degree days 185  
Since 1 July heating degree days 755  
Cooling Degree Days 0    
Month to date cooling degree days 0  
Year to date cooling degree days 396  
Moisture  
Dew Point 40 °F    
Average Humidity 76    
Maximum Humidity 100    
Minimum Humidity 51    
Precipitation  
Precipitation 0.00 in - 0.78 in (2008)
Month to date precipitation 1.96  
Year to date precipitation 24.47  
Sea Level Pressure  
Sea Level Pressure 30.10 in    
Wind  
Wind Speed 2 mph (West)    
Max Wind Speed 8 mph    
Max Gust Speed 11 mph    
Visibility 4 miles    
Events Fog    
T = Trace of Precipitation, MM = Missing Value Source: NWS Daily Summary

Daily Weather History Graph

Daily Weather History Graph

Search for Another Location

Airport or City:

Trip Planner

Search our weather history database for the weather conditions in past years. The results will help you decide how hot, cold, wet, or windy it might be!

Date:

Astronomy

Nov. 11, 2013 Rise Set
Actual Time 7:06 AM PST 4:44 PM PST
Civil Twilight 6:34 AM PST 5:16 PM PST
Nautical Twilight 5:58 AM PST 5:52 PM PST
Astronomical Twilight 5:23 AM PST 6:27 PM PST
Moon 1:44 PM PST (11/11) 12:39 AM PST (11/11)
Length of Visible Light 10h 42m
Length of Day
9h 38m
Waxing Gibbous, 67% of the Moon is Illuminated
Nov 11
Waxing Gibbous
Nov 17
Full
Nov 25
Last Quarter
Dec 2
New
Dec 9
First Quarter

Hourly Weather History & Observations

Time (PST) Temp. Windchill Dew Point Humidity Pressure Visibility Wind Dir Wind Speed Gust Speed Precip Events Conditions
12:39 AM 41.0 °F - 39.0 °F 93% 30.08 in 0.2 mi Calm Calm - N/A Fog Fog
12:50 AM 39.2 °F - 39.2 °F 100% 30.08 in 0.5 mi Calm Calm - N/A Fog Fog
12:53 AM 39.9 °F - 39.0 °F 97% 30.09 in 0.5 mi Calm Calm - N/A Fog Fog
1:07 AM 41.0 °F - 39.0 °F 93% 30.08 in 1.2 mi Calm Calm - N/A   Partly Cloudy
1:19 AM 39.9 °F 37.8 °F 39.0 °F 97% 30.09 in 0.8 mi West 3.5 mph - N/A   Mist
1:32 AM 39.9 °F - 39.0 °F 97% 30.09 in 0.8 mi Calm Calm - N/A   Mist
1:50 AM 39.2 °F - 37.4 °F 93% 30.08 in 1.0 mi Calm Calm - N/A   Clear
1:53 AM 39.9 °F - 37.9 °F 93% 30.09 in 1.2 mi Calm Calm - N/A   Partly Cloudy
1:56 AM 39.0 °F 36.8 °F 37.9 °F 96% 30.09 in 0.8 mi West 3.5 mph - N/A   Mist
2:29 AM 39.9 °F - 37.9 °F 93% 30.09 in 2.0 mi Calm Calm - N/A   Scattered Clouds
2:33 AM 37.9 °F - 37.9 °F 100% 30.10 in 4.0 mi Calm Calm - N/A   Mostly Cloudy
2:42 AM 37.9 °F - 37.0 °F 97% 30.10 in 1.8 mi Calm Calm - N/A   Mostly Cloudy
2:53 AM 37.9 °F - 37.0 °F 97% 30.10 in 1.0 mi Calm Calm - N/A   Mist
3:18 AM 37.9 °F - 37.0 °F 97% 30.10 in 0.2 mi Calm Calm - N/A Fog Fog
3:38 AM 37.9 °F 35.5 °F 37.0 °F 97% 30.10 in 0.8 mi West 3.5 mph - N/A   Mist
3:53 AM 37.9 °F 34.4 °F 37.0 °F 97% 30.11 in 0.8 mi WSW 4.6 mph - N/A   Overcast
4:09 AM 39.9 °F 37.8 °F 39.0 °F 97% 30.11 in 0.2 mi WSW 3.5 mph - N/A Fog Fog
4:22 AM 41.0 °F - 39.9 °F 96% 30.12 in 0.2 mi Calm Calm - N/A Fog Fog
4:53 AM 37.9 °F - 37.9 °F 100% 30.12 in 0.2 mi Calm Calm - N/A Fog Fog
5:06 AM 39.9 °F - 39.0 °F 97% 30.13 in 0.2 mi Calm Calm - N/A Fog Fog
5:40 AM 39.0 °F - 37.9 °F 96% 30.13 in 0.8 mi Calm Calm - N/A   Mostly Cloudy
5:53 AM 37.9 °F 35.5 °F 37.0 °F 97% 30.13 in 0.5 mi WNW 3.5 mph - N/A Fog Fog
6:53 AM 37.0 °F - 36.0 °F 96% 30.14 in 0.5 mi Calm Calm - N/A Fog Fog
6:58 AM 36.0 °F - 35.1 °F 97% 30.14 in 0.2 mi Calm Calm - N/A Fog Fog
7:12 AM 37.9 °F - 36.0 °F 93% 30.15 in 0.5 mi Calm Calm - N/A Fog Fog
7:18 AM 36.0 °F - 35.1 °F 97% 30.14 in 0.2 mi Calm Calm - N/A Fog Fog
7:53 AM 37.0 °F - 36.0 °F 96% 30.16 in 0.5 mi Calm Calm - N/A Fog Fog
8:04 AM 39.0 °F - 37.0 °F 93% 30.15 in 1.0 mi Calm Calm - N/A   Mist
8:13 AM 39.9 °F - 39.0 °F 97% 30.16 in 2.0 mi Calm Calm - N/A   Partly Cloudy
8:20 AM 41.0 °F - 39.9 °F 96% 30.16 in 4.0 mi Calm Calm - N/A   Scattered Clouds
8:25 AM 42.1 °F - 41.0 °F 96% 30.16 in 2.0 mi Calm Calm - N/A   Mostly Cloudy
8:38 AM 42.1 °F - 41.0 °F 96% 30.16 in 5.0 mi Calm Calm - N/A   Mostly Cloudy
8:46 AM 43.0 °F - 41.0 °F 93% 30.16 in 8.0 mi Calm Calm - N/A   Scattered Clouds
8:53 AM 44.1 °F - 42.1 °F 93% 30.17 in 9.0 mi Calm Calm - N/A   Partly Cloudy
9:53 AM 50.0 °F - 46.9 °F 89% 30.14 in 10.0 mi Calm Calm - N/A   Clear
10:53 AM 55.9 °F - 46.0 °F 69% 30.14 in 10.0 mi WSW 5.8 mph - N/A   Clear
11:53 AM 59.0 °F - 42.1 °F 53% 30.12 in 10.0 mi SW 3.5 mph - N/A   Clear
12:53 PM 60.1 °F - 42.1 °F 51% 30.09 in 10.0 mi Calm Calm - N/A   Clear
1:53 PM 61.0 °F - 43.0 °F 52% 30.06 in 10.0 mi Calm Calm - N/A   Clear
2:53 PM 60.1 °F - 43.0 °F 53% 30.05 in 10.0 mi NE 5.8 mph - N/A   Clear
3:53 PM 55.9 °F - 41.0 °F 57% 30.05 in 10.0 mi NNE 3.5 mph - N/A   Clear
4:53 PM 51.1 °F - 43.0 °F 74% 30.06 in 10.0 mi WNW 3.5 mph - N/A   Clear
5:53 PM 46.0 °F 43.9 °F 42.1 °F 86% 30.06 in 10.0 mi WNW 4.6 mph - N/A   Clear
6:53 PM 46.0 °F 43.9 °F 42.1 °F 86% 30.05 in 10.0 mi West 4.6 mph - N/A   Clear
7:53 PM 45.0 °F 42.6 °F 42.1 °F 90% 30.04 in 10.0 mi WSW 4.6 mph - N/A   Clear
8:53 PM 46.0 °F 43.9 °F 42.1 °F 86% 30.04 in 10.0 mi West 4.6 mph - N/A   Clear
9:53 PM 44.1 °F 42.5 °F 41.0 °F 89% 30.03 in 10.0 mi West 3.5 mph - N/A   Clear
10:53 PM 45.0 °F 41.2 °F 42.1 °F 90% 30.05 in 10.0 mi West 6.9 mph - N/A   Clear
11:53 PM 46.9 °F - 42.1 °F 83% 30.08 in 10.0 mi Calm Calm - N/A   Clear